This is the latest recevied weather packets stored in our database for station/object KF0FSA. If no packets are shown the sender has not sent any weather packets the latest 10 day(s).
| Time | Temp. | Humidity | Pressure | Rain* | Wind** | Luminosity | Snow |
|---|---|---|---|---|---|---|---|
| 1777701709 | 1.67° C | 74% | 966.9 hPa | 0 mm | - | 0 W/m² | - |
| 1777701407 | 2.22° C | 73% | 966.9 hPa | 0 mm | - | 0 W/m² | - |
| 1777701120 | 2.78° C | 72% | 966.9 hPa | 0 mm | - | 0 W/m² | - |
| 1777700808 | 2.78° C | 72% | 966.7 hPa | 0 mm | - | 0 W/m² | - |
| 1777700504 | 2.22° C | 79% | 966.7 hPa | 0 mm | - | 0 W/m² | - |
| 1777700205 | 2.78° C | 78% | 966.7 hPa | 0 mm | - | 0 W/m² | - |
| 1777699905 | 2.22° C | 79% | 966.7 hPa | 0 mm | - | 0 W/m² | - |
| 1777699604 | 2.78° C | 77% | 966.7 hPa | 0 mm | - | 0 W/m² | - |
| 1777699304 | 2.78° C | 78% | 966.7 hPa | 0 mm | - | 0 W/m² | - |
| 1777699005 | 2.78° C | 78% | 966.7 hPa | 0 mm | - | 0 W/m² | - |
| 1777698828 | 2.78° C | 76% | 966.8 hPa | 0 mm | - | 0 W/m² | - |
| 1777698405 | 2.78° C | 75% | 966.7 hPa | 0 mm | - | 0 W/m² | - |
| 1777698106 | 2.78° C | 74% | 966.8 hPa | 0 mm | - | 0 W/m² | - |
| 1777697804 | 2.78° C | 72% | 966.8 hPa | 0 mm | - | 0 W/m² | - |
| 1777697505 | 2.78° C | 72% | 966.8 hPa | 0 mm | - | 0 W/m² | - |
| 1777697205 | 2.78° C | 72% | 966.9 hPa | 0 mm | - | 0 W/m² | - |
| 1777696903 | 3.33° C | 68% | 966.9 hPa | 0 mm | - | 0 W/m² | - |
| 1777696602 | 3.33° C | 67% | 966.9 hPa | 0 mm | - | 0 W/m² | - |
| 1777696302 | 3.89° C | 66% | 966.9 hPa | 0 mm | - | 0 W/m² | - |
| 1777695999 | 3.89° C | 66% | 966.9 hPa | 0 mm | - | 0 W/m² | - |
| 1777695699 | 3.89° C | 66% | 966.9 hPa | 0 mm | - | 0 W/m² | - |
| 1777695396 | 3.89° C | 63% | 966.8 hPa | 0 mm | - | 0 W/m² | - |
| 1777695096 | 3.89° C | 63% | 966.9 hPa | 0 mm | - | 0 W/m² | - |
| 1777694796 | 3.89° C | 63% | 966.8 hPa | 0 mm | - | 0 W/m² | - |
| 1777694634 | 4.44° C | 60% | 966.7 hPa | 0 mm | - | 0 W/m² | - |
* Rain latest hour (hover to see other rain measurements)
** Current wind speed in m/s (hover to see current wind gust speed)